Weather History for Fort Lauderdale, FL

Change the Weather History Date:

Wednesday, April 3, 2013

  Actual Average Record
Temperature  
Mean Temperature 74 °F -  
Max Temperature 82 °F 84 °F 95 °F (1975)
Min Temperature 68 °F 65 °F 50 °F (1985)
Cooling Degree Days 10    
Growing Degree Days 24 (Base 50)    
Moisture  
Dew Point 66 °F    
Average Humidity 75    
Maximum Humidity 90    
Minimum Humidity 58    
Precipitation  
Precipitation 0.00 in - - ()
Sea Level Pressure  
Sea Level Pressure 30.04 in    
Wind  
Wind Speed 8 mph (ESE)    
Max Wind Speed 16 mph    
Max Gust Speed 23 mph    
Visibility 10 miles    
Events      
Averages and records for this station are not official NWS values.
T = Trace of Precipitation, MM = Missing Value Source: NWS Daily Summary

Daily Weather History Graph

Daily Weather History Graph

Search for Another Location

Airport:

Trip Planner

Search our weather history database for the weather conditions in past years. The results will help you decide how hot, cold, wet, or windy it might be!

Date:

Astronomy

Apr. 03, 2013 Rise Set
Actual Time 7:09 AM EDT 7:38 PM EDT
Civil Twilight 6:46 AM EDT 8:01 PM EDT
Nautical Twilight 6:18 AM EDT 8:29 PM EDT
Astronomical Twilight 5:51 AM EDT 8:56 PM EDT
Moon 2:12 AM EDT (4/3) 1:24 PM EDT (4/3)
Length of Visible Light 13h 15m
Length of Day
12h 29m
Last Quarter, 45% of the Moon is Illuminated
Apr 3
Last Quarter
Apr 10
New
Apr 18
First Quarter
Apr 25
Full
May 2
Last Quarter

Hourly Weather History & Observations

Time (EDT) Temp. Heat Index Dew Point Humidity Pressure Visibility Wind Dir Wind Speed Gust Speed Precip Events Conditions
12:53 AM 70.0 °F - 64.9 °F 84% 30.08 in 10.0 mi East 4.6 mph - N/A   Clear
1:53 AM 70.0 °F - 64.9 °F 84% 30.07 in 10.0 mi ENE 4.6 mph - N/A   Clear
2:53 AM 69.1 °F - 64.9 °F 87% 30.07 in 10.0 mi ENE 4.6 mph - N/A   Clear
3:53 AM 68.0 °F - 64.9 °F 90% 30.04 in 10.0 mi East 4.6 mph - N/A   Clear
4:53 AM 68.0 °F - 64.9 °F 90% 30.04 in 10.0 mi ESE 3.5 mph - N/A   Clear
5:53 AM 70.0 °F - 64.9 °F 84% 30.04 in 10.0 mi ESE 4.6 mph - N/A   Clear
6:53 AM 71.1 °F - 64.9 °F 81% 30.05 in 10.0 mi ESE 5.8 mph - N/A   Clear
7:53 AM 72.0 °F - 64.9 °F 78% 30.05 in 10.0 mi ESE 8.1 mph - N/A   Scattered Clouds
8:53 AM 75.0 °F - 64.9 °F 71% 30.06 in 10.0 mi ESE 11.5 mph - N/A   Partly Cloudy
9:53 AM 75.9 °F - 66.0 °F 71% 30.07 in 10.0 mi SE 12.7 mph - N/A   Scattered Clouds
10:53 AM 78.1 °F - 64.9 °F 64% 30.08 in 10.0 mi SE 12.7 mph - N/A   Scattered Clouds
11:53 AM 79.0 °F - 64.9 °F 62% 30.06 in 10.0 mi SE 15.0 mph - N/A   Partly Cloudy
12:53 PM 80.1 °F 82.1 °F 66.0 °F 62% 30.04 in 10.0 mi SE 12.7 mph 23.0 mph N/A   Scattered Clouds
1:37 PM 80.6 °F 82.3 °F 64.4 °F 58% 30.03 in 10.0 mi SE 16.1 mph - N/A   Mostly Cloudy
1:53 PM 80.1 °F 81.9 °F 64.9 °F 60% 30.04 in 10.0 mi SE 12.7 mph - N/A   Partly Cloudy
2:53 PM 81.0 °F 83.0 °F 66.0 °F 60% 30.02 in 10.0 mi SE 16.1 mph 20.7 mph N/A   Scattered Clouds
3:53 PM 79.0 °F - 64.0 °F 60% 30.01 in 10.0 mi SE 13.8 mph 23.0 mph N/A   Scattered Clouds
4:53 PM 79.0 °F - 66.0 °F 64% 30.01 in 10.0 mi ESE 13.8 mph 19.6 mph N/A   Scattered Clouds
5:53 PM 77.0 °F - 64.9 °F 66% 30.01 in 10.0 mi SE 11.5 mph - N/A   Scattered Clouds
6:53 PM 75.9 °F - 66.0 °F 71% 30.02 in 10.0 mi East 12.7 mph - N/A   Scattered Clouds
7:53 PM 73.9 °F - 66.9 °F 79% 30.03 in 10.0 mi ESE 9.2 mph - N/A   Mostly Cloudy
8:53 PM 73.9 °F - 66.9 °F 79% 30.04 in 10.0 mi ESE 9.2 mph - N/A   Clear
9:53 PM 73.9 °F - 69.1 °F 85% 30.05 in 10.0 mi ESE 8.1 mph - N/A   Partly Cloudy
10:27 PM 73.4 °F - 69.8 °F 88% 30.05 in 10.0 mi ESE 9.2 mph - N/A   Mostly Cloudy
10:40 PM 73.4 °F - 68.0 °F 83% 30.04 in 10.0 mi ESE 12.7 mph - N/A   Scattered Clouds
10:53 PM 73.9 °F - 68.0 °F 82% 30.05 in 10.0 mi ESE 11.5 mph - N/A   Partly Cloudy
11:53 PM 73.0 °F - 68.0 °F 84% 30.06 in 10.0 mi ESE 8.1 mph - N/A   Clear